Wind_Speed
33 31 30 30 29 28 27 25 24 21 19 18 19 18 15 14 12 11 11 10 10 9 8 8 9 9 10 10 11 12 11 11 11 11 11 11 11 12 12 12 11 11 12 12
33 32 31 31 30 29 28 26 24 22 19 18 19 19 18 17 15 14 13 12 11 10 10 10 10 10 12 12 12 13 12 11 12 13 13 12 12 12 12 12 12 13 13 13
34 33 32 32 31 30 29 27 25 23 21 19 19 19 19 18 17 16 15 14 12 12 11 11 11 12 13 13 13 13 13 12 13 14 13 13 13 13 13 13 14 14 14 14
35 34 34 32 31 31 30 27 26 24 22 22 20 20 20 19 18 17 16 14 13 13 12 13 13 14 13 13 13 14 14 13 13 14 14 14 14 14 14 15 15 14 14 14
36 35 34 33 32 31 30 29 27 25 23 23 22 21 20 18 18 18 17 15 14 14 14 14 15 15 15 15 15 15 15 15 15 15 15 15 15 15 15 15 15 15 15 16
37 36 35 33 32 32 31 30 27 26 24 23 23 22 20 19 19 19 19 17 16 16 17 16 16 16 16 17 17 16 16 17 17 16 15 16 16 16 16 16 16 16 17 17
37 36 35 34 32 31 32 30 27 26 25 24 23 22 22 21 21 20 20 20 19 19 19 19 18 19 18 19 19 18 18 17 17 16 16 17 17 17 17 17 17 17 17 17
37 36 35 34 33 33 32 31 29 28 27 26 24 23 23 22 22 22 22 22 21 21 21 21 21 20 21 21 20 20 20 19 17 16 17 18 18 18 19 18 18 18 18 18
39 37 35 34 34 33 33 33 32 30 29 28 27 26 25 23 23 23 23 23 22 23 23 23 23 22 23 22 22 22 21 19 18 17 18 19 19 19 19 19 19 19 19 19
40 38 36 35 34 34 34 35 33 32 31 30 30 29 28 26 25 24 24 24 24 24 25 25 25 24 24 24 24 24 22 20 20 20 20 20 20 21 21 21 21 21 21 21
41 39 37 36 36 35 34 34 34 33 33 32 31 31 30 29 28 27 27 26 26 26 26 26 26 26 26 26 25 24 24 23 23 22 23 22 22 22 22 22 22 22 22 22
41 40 38 37 37 36 35 34 33 33 33 33 33 33 32 32 32 30 29 29 28 28 28 28 27 27 27 27 26 26 25 24 24 24 25 24 24 23 23 23 23 23 23 23
42 41 39 37 37 37 36 35 34 34 33 32 33 33 33 33 32 31 30 30 29 29 29 30 29 28 28 28 28 28 28 27 25 25 25 25 25 24 24 24 25 25 24 24
42 41 39 38 37 37 36 36 36 35 34 34 34 34 34 34 33 32 32 31 31 31 31 31 30 29 29 29 29 29 28 28 28 27 26 26 26 26 25 25 25 25 25 26
40 40 39 39 38 37 37 36 36 35 34 34 35 34 33 33 33 33 33 32 32 32 32 31 30 30 30 30 29 29 29 28 27 27 27 27 28 27 26 26 26 26 26 26
38 38 38 38 37 37 36 36 36 36 35 34 34 34 32 32 32 33 32 32 32 32 32 32 31 32 31 29 28 28 29 29 29 28 29 29 29 27 27 27 28 28 28 28
38 38 37 37 37 37 36 36 36 36 35 34 33 32 32 32 33 33 33 32 32 32 32 32 32 31 29 28 28 29 30 30 30 30 30 29 29 28 28 29 29 29 29 30
38 38 37 37 36 35 35 35 36 36 36 35 34 33 33 33 32 32 31 31 31 31 31 31 31 31 29 29 29 30 30 30 31 31 30 30 29 29 29 30 30 30 31 30
38 37 36 35 35 34 35 35 36 37 36 36 36 36 35 33 32 32 30 29 30 30 30 30 29 28 28 29 30 31 31 31 31 31 30 29 29 29 30 30 31 31 31 31
36 35 34 34 34 34 34 35 36 37 37 36 35 34 33 31 31 31 31 29 28 28 29 28 28 27 27 28 29 30 30 30 30 31 30 30 30 30 30 30 31 31 31 31
33 33 32 32 32 32 32 32 33 34 34 35 33 32 31 30 30 29 28 27 26 26 26 26 27 27 28 28 28 29 29 29 30 30 30 30 30 31 31 31 31 31 31 32
29 29 29 30 30 30 30 30 30 30 30 31 32 32 30 28 28 28 28 27 25 25 26 26 27 27 27 27 28 28 29 30 30 30 29 29 30 30 31 31 31 31 31 32
27 27 27 27 27 28 28 28 29 28 27 27 27 28 27 26 26 26 26 26 25 26 26 26 27 27 27 27 28 29 30 30 30 30 29 29 30 30 30 30 31 31 32 32
25 25 24 25 25 26 26 27 27 27 26 27 26 26 26 26 26 26 26 26 26 27 27 28 28 29 29 29 29 29 30 30 29 29 29 29 30 30 30 31 31 32 32 33
23 23 23 23 23 24 24 24 25 26 26 26 26 25 26 26 26 25 26 27 27 27 28 28 28 29 28 28 28 29 29 28 28 29 29 30 30 30 31 31 32 32 32 33
21 22 22 21 22 23 23 24 24 24 25 24 24 24 24 25 26 26 26 26 26 27 27 27 27 27 27 27 27 27 27 28 28 28 29 29 30 31 31 31 31 31 31 31
20 20 20 20 20 21 22 22 22 23 23 23 23 23 23 24 25 25 25 25 25 25 25 25 25 25 26 26 26 26 26 26 27 27 28 29 29 30 30 30 30 30 31 31
Wind_Direction
225 226 229 233 235 237 239 242 245 248 250 246 247 253 258 259 265 276 285 291 296 300 305 313 317 320 324 326 327 328 328 329 331 331 329 327 326 323 320 318 315 313 312 311
225 226 228 231 234 236 237 239 241 245 247 246 246 250 254 257 262 270 277 283 289 291 295 304 309 315 316 317 318 320 320 320 323 325 325 324 324 322 318 315 313 311 310 309
226 226 228 231 232 234 236 239 242 245 245 244 245 247 250 253 258 264 271 277 282 286 291 299 301 303 306 311 312 313 313 313 316 318 318 320 321 321 318 315 314 312 312 311
228 227 229 231 232 234 237 241 244 246 247 245 245 247 248 249 253 258 266 271 275 280 287 293 298 299 300 306 307 306 305 306 308 311 314 316 317 318 318 315 316 317 311 311
229 230 232 231 231 234 238 241 244 246 247 248 246 244 246 249 252 256 262 266 271 278 286 290 294 296 298 301 301 302 303 306 305 307 309 312 313 313 313 315 317 317 313 310
230 231 232 232 233 234 236 239 243 246 247 249 247 244 245 250 254 257 260 264 269 277 283 287 292 295 296 298 300 300 301 300 305 303 306 307 309 310 312 311 312 313 312 309
231 233 233 232 233 234 236 239 242 244 246 248 248 246 245 248 254 258 261 265 270 274 279 284 288 293 296 296 297 298 298 299 303 300 302 302 304 306 309 309 311 312 312 311
232 233 234 234 234 235 237 238 240 242 244 247 248 247 246 248 253 258 261 265 269 272 276 281 285 289 292 292 293 295 298 299 298 298 299 299 300 302 304 307 310 311 310 311
231 234 235 236 236 237 237 239 240 242 244 245 247 247 249 251 255 258 261 263 266 269 274 277 281 285 287 289 290 292 295 293 291 291 295 295 296 298 301 304 307 308 309 310
231 233 234 235 236 237 238 240 241 242 243 245 246 248 250 252 255 259 261 262 264 267 270 274 277 280 283 286 287 290 291 291 293 294 293 291 291 294 297 300 303 305 305 306
232 233 234 235 236 237 239 240 241 242 244 245 246 248 250 251 254 257 259 261 262 265 267 270 274 277 279 282 284 286 288 289 289 291 291 291 289 291 295 297 299 301 302 302
232 233 235 235 236 238 239 241 242 243 244 246 248 249 250 251 253 254 257 259 261 265 266 268 271 275 277 278 280 282 284 286 285 287 290 290 289 290 292 296 297 298 298 299
233 234 235 236 237 238 240 241 242 243 245 247 248 250 251 253 253 252 254 257 260 263 265 267 268 270 273 276 278 282 283 283 285 286 288 288 287 288 291 293 296 297 297 296
233 235 236 236 237 239 241 241 242 244 245 247 249 250 251 252 253 253 256 257 259 261 264 266 267 267 270 274 276 279 282 283 283 283 285 285 286 287 290 293 294 295 295 294
233 235 236 237 238 240 241 242 243 245 246 247 250 251 252 253 253 255 257 259 259 261 263 263 266 268 270 273 276 277 280 281 281 282 284 284 285 287 289 290 292 294 294 294
232 234 235 237 240 242 242 242 244 245 246 246 249 251 252 252 252 254 256 258 259 261 262 264 268 271 270 271 274 277 278 280 281 282 284 286 286 285 288 289 290 291 292 293
233 235 236 238 240 242 243 244 245 244 245 246 248 250 252 253 254 255 255 257 260 262 263 264 266 268 267 269 272 275 278 279 280 282 284 284 284 284 286 288 288 288 290 292
235 236 238 239 240 242 244 244 244 244 244 244 246 249 252 254 255 257 257 257 259 261 262 264 266 269 267 268 271 274 277 279 280 283 283 282 281 283 285 287 288 289 290 290
235 236 237 238 240 243 243 243 244 244 244 244 246 249 251 252 252 255 258 258 256 258 260 262 264 266 268 271 272 275 278 279 281 283 281 280 281 283 285 286 287 288 289 290
235 236 238 239 240 242 243 244 244 244 245 245 247 250 250 251 254 255 257 257 258 258 259 261 263 266 269 272 275 277 278 278 281 282 282 281 283 284 285 286 287 287 288 290
234 235 237 238 238 239 242 244 245 246 244 244 245 249 250 251 253 255 256 254 255 256 258 261 264 266 268 271 274 277 278 279 281 281 280 281 283 284 285 286 286 287 289 289
230 232 234 236 237 239 242 244 246 247 247 246 246 249 252 253 253 255 257 255 254 256 258 260 263 265 268 272 274 276 278 280 281 280 281 282 283 284 285 286 286 288 289 290
228 231 234 237 240 243 244 246 247 246 247 249 248 249 253 254 256 257 255 254 257 260 261 263 265 268 270 272 275 277 278 280 280 280 281 283 284 285 286 287 287 288 290 291
226 229 233 236 239 242 245 246 247 246 247 250 251 252 253 255 256 256 255 257 261 264 264 265 266 269 271 273 275 277 278 278 279 280 281 282 284 287 288 288 288 289 290 291
227 230 233 237 240 242 243 245 247 248 249 249 250 253 252 252 253 254 257 259 261 264 266 267 268 270 271 272 274 276 277 278 279 281 283 285 286 287 287 288 288 289 290 291
226 230 235 240 243 243 244 246 247 248 248 248 250 251 251 252 254 255 257 259 261 263 265 266 268 269 271 271 272 274 277 279 281 282 284 285 287 288 289 289 289 289 290 291
227 231 235 239 242 244 245 246 247 247 246 247 248 251 253 253 254 254 255 257 259 261 262 263 265 266 268 270 272 275 278 279 281 284 285 287 288 290 291 290 290 291 291 291
Height
5866 5871 5875 5878 5882 5885 5888 5891 5895 5898 5901 5903 5905 5907 5908 5909 5909 5910 5910 5909 5909 5908 5908 5907 5906 5905 5904 5903 5902 5901 5899 5897 5896 5894 5892 5890 5888 5887 5885 5884 5882 5880 5879 5877
5860 5865 5869 5872 5876 5880 5883 5887 5890 5893 5896 5899 5900 5902 5904 5905 5906 5907 5907 5907 5906 5906 5906 5905 5904 5904 5903 5901 5900 5899 5897 5896 5894 5893 5891 5889 5887 5885 5883 5882 5880 5878 5876 5875
5854 5859 5862 5866 5871 5874 5878 5882 5886 5889 5893 5894 5896 5898 5899 5901 5902 5904 5904 5904 5904 5904 5903 5903 5902 5902 5901 5899 5898 5897 5895 5894 5892 5891 5889 5887 5885 5883 5881 5879 5877 5875 5874 5872
5848 5853 5856 5864 5866 5869 5873 5877 5880 5884 5887 5889 5891 5893 5895 5896 5898 5899 5900 5901 5901 5901 5901 5900 5900 5899 5898 5897 5895 5894 5892 5891 5890 5888 5886 5884 5883 5881 5878 5877 5875 5873 5871 5869
5841 5846 5851 5857 5860 5864 5868 5871 5875 5878 5881 5883 5885 5888 5890 5892 5894 5895 5897 5897 5897 5897 5897 5897 5896 5896 5895 5894 5892 5891 5890 5888 5887 5885 5884 5882 5880 5878 5876 5874 5872 5870 5868 5866
5835 5839 5844 5851 5855 5858 5863 5866 5869 5872 5875 5878 5880 5883 5886 5887 5889 5890 5891 5892 5893 5893 5893 5893 5893 5892 5891 5890 5889 5888 5886 5885 5883 5881 5880 5879 5877 5875 5873 5871 5869 5867 5865 5863
5828 5833 5838 5844 5848 5853 5858 5861 5864 5867 5870 5872 5875 5878 5881 5882 5884 5885 5886 5887 5887 5888 5888 5888 5888 5888 5887 5886 5885 5883 5882 5880 5879 5877 5877 5875 5874 5872 5870 5868 5866 5864 5861 5859
5821 5826 5833 5837 5841 5846 5850 5854 5857 5860 5863 5866 5869 5872 5874 5876 5878 5880 5881 5882 5883 5883 5883 5883 5883 5883 5882 5881 5880 5879 5877 5875 5874 5873 5873 5871 5870 5868 5866 5864 5862 5860 5858 5855
5815 5821 5826 5830 5834 5838 5842 5846 5850 5854 5857 5860 5862 5865 5867 5870 5872 5873 5875 5876 5877 5877 5878 5878 5878 5878 5877 5876 5875 5874 5872 5870 5870 5869 5868 5867 5865 5864 5862 5860 5858 5856 5854 5851
5807 5813 5818 5823 5827 5831 5834 5838 5842 5846 5849 5853 5856 5858 5861 5863 5865 5867 5868 5870 5871 5872 5872 5872 5872 5872 5871 5870 5870 5868 5867 5866 5864 5864 5863 5861 5860 5859 5857 5855 5853 5851 5849 5847
5800 5805 5810 5815 5819 5823 5827 5831 5834 5838 5842 5845 5848 5851 5853 5856 5858 5860 5861 5862 5864 5865 5865 5865 5865 5865 5865 5865 5864 5863 5861 5860 5859 5858 5857 5856 5854 5853 5852 5850 5848 5846 5844 5842
5792 5798 5803 5808 5812 5816 5820 5823 5827 5830 5834 5837 5839 5843 5845 5848 5850 5852 5853 5855 5856 5857 5858 5858 5858 5858 5858 5858 5857 5856 5855 5854 5853 5852 5851 5850 5848 5847 5846 5844 5842 5840 5838 5836
5784 5789 5795 5800 5804 5808 5812 5816 5819 5822 5826 5828 5831 5834 5837 5839 5841 5843 5845 5846 5848 5849 5850 5850 5850 5851 5851 5851 5850 5850 5849 5847 5846 5846 5845 5843 5842 5841 5839 5838 5836 5833 5831 5829
5776 5781 5787 5792 5796 5800 5804 5807 5811 5814 5817 5820 5822 5825 5827 5830 5832 5834 5836 5838 5840 5841 5841 5842 5842 5843 5843 5843 5842 5842 5841 5840 5839 5839 5838 5837 5835 5834 5832 5831 5829 5827 5825 5823
5768 5773 5779 5783 5788 5792 5795 5799 5802 5805 5808 5811 5814 5816 5818 5821 5823 5826 5828 5830 5831 5832 5833 5833 5834 5834 5834 5834 5834 5834 5834 5833 5832 5831 5830 5828 5827 5826 5825 5823 5822 5820 5818 5816
5760 5765 5770 5775 5779 5783 5787 5790 5794 5797 5800 5803 5805 5808 5810 5812 5814 5816 5819 5820 5822 5823 5824 5824 5825 5825 5825 5826 5826 5826 5826 5825 5824 5823 5822 5820 5819 5818 5816 5815 5814 5812 5810 5808
5753 5758 5763 5767 5771 5775 5779 5782 5785 5788 5791 5794 5797 5799 5801 5803 5805 5807 5809 5811 5813 5814 5815 5816 5816 5816 5817 5817 5818 5818 5818 5817 5816 5815 5814 5812 5811 5809 5808 5807 5806 5804 5802 5800
5745 5750 5755 5760 5763 5767 5770 5773 5776 5779 5782 5785 5788 5790 5792 5794 5796 5798 5799 5801 5803 5804 5805 5806 5807 5808 5808 5809 5809 5809 5809 5808 5807 5806 5805 5803 5802 5801 5800 5799 5797 5795 5793 5791
5738 5742 5747 5751 5754 5758 5761 5763 5767 5770 5773 5776 5779 5781 5783 5785 5786 5788 5789 5791 5793 5795 5796 5797 5798 5799 5800 5800 5800 5800 5799 5799 5798 5797 5795 5794 5793 5792 5791 5789 5788 5786 5784 5782
5730 5735 5739 5743 5746 5749 5752 5755 5758 5761 5764 5766 5770 5772 5774 5776 5778 5779 5781 5782 5784 5786 5788 5789 5790 5791 5792 5792 5792 5791 5791 5790 5789 5788 5787 5785 5784 5783 5782 5780 5778 5777 5775 5772
5724 5728 5732 5735 5739 5742 5744 5747 5749 5752 5754 5758 5761 5764 5766 5768 5770 5771 5773 5775 5776 5778 5779 5781 5782 5783 5783 5783 5783 5783 5782 5781 5780 5779 5778 5777 5775 5774 5772 5771 5769 5767 5765 5763
5717 5721 5725 5729 5732 5735 5737 5740 5742 5744 5746 5749 5753 5756 5758 5760 5762 5764 5765 5768 5769 5770 5772 5773 5773 5774 5774 5774 5774 5774 5774 5773 5771 5770 5769 5767 5766 5765 5763 5761 5759 5757 5755 5753
5712 5715 5719 5722 5725 5728 5731 5733 5736 5738 5740 5743 5746 5749 5751 5753 5754 5756 5758 5760 5762 5762 5763 5764 5765 5765 5765 5765 5765 5765 5764 5763 5762 5761 5760 5758 5757 5755 5753 5751 5750 5747 5745 5743
5706 5709 5712 5716 5719 5721 5724 5727 5729 5732 5734 5736 5739 5741 5743 5745 5747 5749 5750 5752 5753 5754 5755 5756 5756 5756 5756 5756 5756 5755 5755 5754 5753 5752 5750 5749 5747 5745 5744 5742 5740 5737 5735 5733
5701 5704 5707 5710 5712 5715 5718 5720 5722 5725 5727 5729 5731 5733 5735 5737 5739 5740 5742 5743 5745 5746 5746 5746 5746 5746 5746 5746 5746 5746 5745 5744 5743 5742 5741 5740 5738 5736 5734 5732 5730 5728 5725 5723
5696 5699 5702 5704 5707 5709 5712 5714 5716 5718 5720 5721 5723 5725 5727 5729 5731 5732 5734 5735 5736 5737 5737 5737 5737 5737 5737 5737 5737 5736 5736 5735 5734 5733 5732 5731 5729 5727 5725 5722 5720 5718 5716 5713
5692 5695 5697 5699 5701 5703 5705 5707 5709 5711 5712 5714 5716 5718 5719 5721 5723 5724 5725 5726 5727 5728 5728 5729 5729 5729 5729 5729 5728 5728 5727 5727 5726 5724 5723 5721 5719 5717 5715 5713 5711 5709 5706 5704